Location: A�n Tadlesse
(35.0351°N, 0.5353°E)
Time: 08:13:17
(UTC+00:00)

Cosmos 1076 Rocket - Pass Details

Date: 21 October 2019
Orbit: 589 x 613 km, 82.5° (Epoch: 13 November)

Event Time Altitude Azimuth Distance (km) Brightness Sun altitude
Rises 18:57:04 0° 352° (N) 2,876 7.1 -21.4°
Reaches altitude 10° 18:59:18 10° 351° (N) 1,965 6.2 -21.8°
Maximum altitude 19:03:39 81° 265° (W) 617 3.5 -22.7°
Enters shadow 19:07:25 13° 178° (S) 1,730 5.8 -23.5°
